Home   Weather   Liberec   Past weeks

Flag for Czech Republic Past Weather in Liberec, Czech Republic — Yesterday and Last 2 Weeks

38 °F


Feels Like: 38 °F
Forecast: 34 / 46 °F
Wind: 1 mph from Southeast

Location: Liberec

Current Time: Oct 22, 2016 at 1:44:26 AM

Latest Report: Oct 22, 2016 at 1:00 AM

Visibility: 0 mi

Pressure: 29.99 "Hg

Humidity: 97%

Dew Point: 37 °F

Location of LiberecLocation

Past Weather in Liberec — Graph


Liberec Temperature Yesterday

Maximum temperature yesterday: 45 °F (at 12:00 PM)
Minimum temperature yesterday: 37 °F (at 11:00 PM)
Average temperature yesterday: 43 °F

High & Low Weather Summary for the Past Weeks

High57 °F (Oct 16, 3:00 PM)98% (Oct 16, 11:00 PM)30.34 "Hg (Oct 16, 11:00 PM)
Low36 °F (Oct 17, 6:00 AM)55% (Oct 7, 3:00 PM)29.88 "Hg (Oct 15, 7:00 AM)
Average45 °F87%30.11 "Hg
* Reported Oct 7 12:00 AM — Oct 22 12:00 AM, Liberec, Weather by CustomWeather, © 2016

Note: Actual official high and low records may vary slightly from our data, if they occured in-between our weather recording intervals... More about our weather records


Liberec Weather History for the Previous 24 Hours

Scroll right to see more
Time TempWeatherWind HumidityBarometerVisibility
12:00 AM
Sat, Oct 22
36 °FChilly.1 mph97%30.01 "Hg7 mi
11:00 PM
Fri, Oct 21
37 °FChilly.1 mph97%30.01 "Hg7 mi
10:00 PM37 °FFog.1 mph95%30.00 "Hg4 mi
9:00 PM40 °FLow clouds.1 mph95%29.98 "Hg2 mi
8:00 PM42 °FLow clouds.1 mph96%29.97 "Hg4 mi
7:00 PM42 °FFog.1 mph96%29.96 "Hg5 mi
6:00 PM43 °FQuite cool.1 mph89%29.95 "Hg10 mi
5:00 PM44 °FPartly sunny.1 mph81%29.94 "Hg8 mi
4:00 PM45 °FLight rain. Overcast.1 mph86%29.93 "Hg8 mi
3:00 PM44 °FOvercast.2 mph86%29.93 "Hg7 mi
2:00 PM44 °FLight rain. Overcast.2 mph89%29.93 "Hg6 mi
1:00 PM45 °FOvercast.2 mph83%29.93 "Hg10 mi
12:00 PM45 °FOvercast.2 mph82%29.92 "Hg9 mi
11:00 AM43 °FOvercast.3 mph88%29.93 "Hg6 mi
10:00 AM43 °FLight rain. Overcast.3 mph89%29.93 "Hg3 mi
9:00 AM43 °FLight rain. Overcast.3 mph84%29.92 "Hg7 mi
8:00 AM43 °FOvercast.3 mph86%29.91 "Hg9 mi
7:00 AM43 °FQuite cool.3 mph88%29.90 "Hg8 mi
6:00 AM43 °FQuite cool.3 mph88%29.91 "Hg8 mi
5:00 AM43 °FRain showers. Overcast.2 mph90%29.91 "Hg7 mi
4:00 AM43 °FQuite cool.2 mph90%29.91 "Hg6 mi
3:00 AM44 °FQuite cool.2 mph90%29.93 "Hg7 mi
2:00 AM44 °FQuite cool.2 mph90%29.93 "Hg7 mi
1:00 AM44 °FRain showers. Overcast.2 mph90%29.93 "Hg7 mi
Weather by CustomWeather, © 2016

See weather overviewHow to use our weather pages